User: anonymous   Login
Location: Valdosta
(30.8330°N, 83.2790°W)
Time: 08:24:43
(UTC-04:00)
Language:

Oscar 19 - Orbit

View from above orbital plane
View from above orbital plane
View from above satellite
View from above satellite

Ground track
Ground track

The orbit data is extracted from the following two-line orbital elements,

1 20442U 90005G   16209.77782625 -.00000006  00000-0  13958-4 0  9995
2 20442  98.5441 144.1574 0012449  31.3675 328.8249 14.32823582385163
Epoch (UTC): 27 July 2016 18:40:04
Eccentricity: 0.0012449
inclination: 98.5441°
perigee height: 773 km
apogee height: 791 km
right ascension of ascending node: 144.1574°
argument of perigee: 31.3675°
revolutions per day: 14.32823582
mean anomaly at epoch: 328.8249°
orbit number at epoch: 38516

The dashed part of the orbit path shows where the satellite is in the earth's shadow,  

DLR